Wind_Speed
12 11 11 11 11 10 10 10 10 9 9 7 7 6 5 5 3 3 2 2 1 1 1 2 2 3 4 4 5 5 5 5 6 6 6 7 8 8 9 9 10 10 10
11 11 10 11 11 11 11 10 10 10 9 8 7 6 5 5 4 3 3 2 2 2 2 2 3 4 4 5 6 6 6 7 7 7 8 8 9 10 10 10 11 12 12
10 10 10 10 11 11 11 11 11 10 10 8 7 7 6 5 5 4 3 3 2 3 3 4 4 4 5 6 7 7 7 8 9 9 9 9 10 11 11 12 12 13 14
9 9 9 9 10 11 11 11 11 11 10 9 8 8 8 7 6 5 4 4 4 4 4 4 5 6 6 7 8 8 9 9 10 10 11 11 12 13 13 13 14 15 16
7 8 8 8 9 10 10 11 11 11 11 10 9 8 8 7 7 6 5 4 4 4 4 5 6 6 7 7 8 9 9 9 10 10 11 12 13 14 14 15 15 16 16
6 7 7 8 8 9 9 10 10 10 10 10 9 9 9 8 8 7 6 5 5 5 5 6 6 7 7 7 8 9 9 10 11 11 12 12 13 14 15 16 16 16 16
5 5 7 7 7 8 8 9 10 10 10 10 10 10 10 9 9 8 7 7 6 6 6 7 7 8 8 9 9 10 10 11 11 12 12 13 14 15 15 16 16 16 16
4 5 6 6 7 7 8 9 10 10 10 10 10 10 10 10 9 9 8 8 7 7 7 7 8 8 9 9 10 11 11 11 12 12 12 13 14 15 16 16 16 16 16
5 6 6 6 6 7 7 9 9 10 10 10 10 10 11 11 10 10 10 9 9 8 8 8 8 9 9 10 11 11 11 12 12 13 13 13 14 15 15 15 16 16 16
7 7 7 7 7 7 7 8 9 9 10 10 11 11 12 11 11 11 11 11 10 10 10 10 10 10 10 10 11 11 12 13 13 13 14 13 14 14 14 15 15 15 16
9 9 9 8 8 7 8 8 8 9 10 11 11 12 12 12 12 13 13 12 12 11 11 10 11 11 11 11 11 12 12 13 14 14 14 14 14 14 15 15 15 15 15
10 10 10 10 10 9 9 8 9 9 10 11 12 12 12 12 13 14 14 13 13 13 13 12 12 12 11 11 11 12 12 12 13 14 13 13 14 14 15 15 15 15 15
12 12 12 12 11 11 11 10 10 10 10 11 12 12 12 13 13 14 14 15 15 14 14 14 13 13 12 12 12 12 13 13 13 13 13 14 14 15 15 15 15 15 16
14 15 15 14 13 12 12 12 12 12 12 12 13 13 13 14 14 15 15 16 17 16 15 15 14 13 13 13 13 14 14 14 14 14 14 14 15 15 15 16 16 16 16
17 17 17 16 15 14 14 14 13 13 13 13 14 14 15 15 15 16 16 17 17 16 15 15 15 14 14 13 14 14 14 14 14 15 15 16 16 16 16 16 16 16 16
19 19 19 18 18 17 16 15 15 14 15 15 15 15 16 17 17 16 17 17 18 18 16 16 15 14 14 14 14 15 14 15 15 15 16 16 16 16 16 16 16 16 16
21 20 20 19 19 19 18 17 17 17 17 17 16 17 17 17 17 18 19 19 19 18 17 17 16 15 15 15 14 14 16 16 16 16 16 16 16 16 17 17 17 17 17
22 23 22 22 21 20 19 19 19 19 19 19 18 18 18 18 19 19 20 21 20 19 18 17 16 16 15 15 15 15 16 16 16 16 16 16 17 17 18 18 17 17 18
24 24 24 24 24 23 21 21 21 21 21 21 21 20 20 20 20 21 21 22 21 19 19 18 17 17 16 16 16 17 17 17 17 17 17 18 18 18 18 18 18 19 19
27 26 26 26 26 25 24 24 23 23 23 23 22 21 21 20 21 22 22 22 22 21 20 19 18 18 17 17 18 18 18 18 18 18 18 19 19 19 19 19 20 20 20
28 27 27 27 27 27 26 26 26 26 25 25 25 24 23 23 23 23 23 22 22 21 21 20 20 19 19 19 19 19 19 19 19 20 20 20 20 20 20 21 21 21 21
29 28 28 29 29 29 28 28 28 28 27 27 26 25 25 25 24 24 23 23 22 22 22 21 21 21 21 20 20 21 20 20 21 21 21 21 21 21 22 22 22 23 23
31 30 30 31 30 30 30 30 30 30 29 29 28 27 27 26 26 26 26 24 24 24 24 23 23 22 22 21 21 22 22 21 21 22 22 23 23 22 22 22 23 23 24
33 32 32 32 31 30 31 31 32 32 31 30 29 29 30 29 28 27 27 26 26 25 24 23 22 22 23 22 22 23 22 22 23 23 23 22 22 22 23 23 23 24 25
34 34 34 34 33 33 33 33 34 33 33 32 32 31 31 30 29 29 30 29 27 25 25 24 23 23 23 23 23 24 24 24 24 24 24 24 24 24 24 24 25 25 26
34 34 34 34 34 34 34 34 34 34 34 34 33 32 32 31 31 31 30 29 28 27 25 24 24 25 25 25 25 25 25 25 25 25 25 25 25 26 26 27 27 27 26
Wind_Direction
36 36 37 39 41 42 41 40 40 38 39 43 45 45 42 41 37 31 22 8 343 320 284 269 262 255 254 257 261 266 274 274 273 282 283 285 290 292 290 290 291 292 294
32 33 36 39 40 40 39 37 38 38 38 39 37 34 32 28 18 5 358 349 332 317 299 277 268 266 269 273 275 273 277 282 280 283 282 286 287 290 290 290 294 294 291
25 29 33 36 38 39 39 38 38 37 35 34 29 25 21 15 5 354 340 326 315 306 297 287 278 276 278 277 279 277 278 282 283 285 283 285 286 287 289 289 293 296 292
19 22 27 32 33 34 35 37 35 33 32 32 25 24 16 11 5 353 336 317 306 301 294 293 292 283 280 282 283 281 281 284 288 287 287 285 286 287 288 289 290 291 291
16 22 28 29 26 27 28 30 30 29 29 28 26 23 16 10 7 2 349 325 311 306 297 291 289 286 285 286 285 283 283 286 289 289 288 286 285 286 287 288 288 291 292
12 20 18 18 18 18 19 21 22 23 24 23 23 21 17 13 7 1 356 344 326 315 306 296 293 289 288 287 287 287 289 289 289 289 290 289 287 287 287 289 289 291 292
352 2 6 8 11 10 10 11 12 13 15 16 16 14 12 9 6 1 352 344 330 318 308 302 296 291 288 289 290 291 294 294 292 291 291 291 290 290 290 291 291 291 292
324 337 349 356 358 1 5 7 6 5 9 10 11 11 10 8 6 1 352 345 335 320 311 309 305 299 296 293 292 292 294 295 294 294 293 293 294 295 292 292 293 294 294
296 308 320 334 345 353 357 359 1 3 4 3 3 4 3 2 1 360 354 347 339 329 318 313 310 308 303 296 292 292 292 293 294 293 294 294 297 297 295 293 293 294 294
287 294 299 309 320 331 340 345 350 354 356 355 354 355 355 355 355 354 351 347 342 334 327 320 313 310 306 300 298 298 294 292 294 294 296 296 297 298 298 296 295 296 296
282 288 291 295 302 312 323 331 337 342 347 347 346 348 350 351 349 348 346 342 339 333 327 323 318 312 306 302 301 302 300 298 297 297 297 297 299 299 300 300 299 296 296
279 282 285 287 294 300 309 314 320 328 336 338 337 338 340 342 343 343 343 340 335 331 327 323 319 314 309 305 303 304 303 304 301 300 301 301 301 304 305 304 300 297 297
271 274 277 281 287 293 298 303 306 313 323 330 331 331 331 333 335 337 338 336 333 330 325 321 319 315 311 309 307 305 304 306 306 304 303 302 304 305 305 304 303 301 297
265 267 270 273 278 285 290 294 297 304 313 320 324 325 325 325 327 328 330 330 330 328 324 319 317 315 310 308 308 307 305 305 306 305 304 304 304 306 305 303 302 301 300
262 262 263 267 272 278 283 286 289 296 305 311 315 320 322 321 320 321 323 325 326 323 322 320 316 316 312 307 306 307 307 305 305 305 304 304 303 305 306 305 303 302 302
260 260 260 264 270 275 277 279 284 288 295 303 307 316 319 318 317 315 315 318 319 319 316 317 314 311 308 306 307 308 307 305 304 305 305 304 304 305 304 303 303 303 303
258 259 262 265 269 273 275 276 280 283 290 296 301 306 312 313 313 312 311 312 313 313 313 314 309 305 302 302 305 305 305 303 303 304 304 305 306 306 305 304 304 304 304
257 258 259 262 265 268 271 276 281 284 287 290 296 302 306 309 308 308 308 308 308 307 306 308 307 305 303 304 305 304 304 303 303 304 304 305 306 305 305 304 304 303 303
257 257 257 261 265 268 272 275 278 280 283 286 290 295 300 303 305 306 307 306 304 305 305 303 303 304 305 305 304 305 305 305 305 304 304 303 304 305 306 305 304 303 303
256 257 254 257 262 266 269 272 276 278 281 284 288 290 294 299 301 302 304 306 300 300 301 301 301 301 302 303 302 303 303 302 303 304 304 304 304 304 304 304 304 303 303
255 256 255 256 259 264 267 270 272 276 278 280 286 288 290 292 296 298 300 303 300 299 296 296 298 298 298 299 299 300 300 301 301 301 303 304 305 304 303 303 302 302 302
253 253 255 256 258 261 264 267 270 272 273 277 283 285 287 289 291 293 295 297 299 299 298 296 296 297 296 296 298 298 298 299 301 303 304 306 307 305 303 302 301 302 303
253 253 254 256 258 260 262 265 269 271 272 274 278 280 284 285 287 291 294 294 295 297 298 295 295 294 295 294 296 298 298 299 301 303 304 305 305 304 304 303 302 302 303
254 254 256 257 258 259 262 264 267 270 271 272 275 278 281 284 287 289 291 291 292 292 293 293 292 293 294 294 294 296 296 298 299 300 302 303 303 302 302 303 303 303 303
256 257 257 257 257 259 261 264 265 267 269 272 273 277 279 281 282 285 287 288 288 290 290 289 288 289 292 291 291 292 294 295 296 297 298 298 300 301 301 301 302 303 304
257 258 260 259 257 258 261 263 264 266 267 270 273 275 276 277 279 282 285 285 286 287 286 285 285 286 288 289 289 289 291 292 293 294 296 297 298 299 299 300 301 301 301
Height
5924 5922 5920 5918 5917 5915 5913 5912 5910 5909 5907 5906 5905 5905 5904 5903 5902 5902 5901 5901 5901 5901 5901 5901 5901 5901 5901 5901 5901 5901 5900 5900 5899 5899 5899 5898 5897 5897 5896 5895 5894 5894 5892
5926 5924 5922 5920 5918 5916 5915 5913 5911 5910 5908 5907 5906 5906 5905 5904 5903 5902 5902 5901 5901 5900 5900 5900 5900 5900 5900 5900 5900 5899 5899 5899 5898 5898 5897 5897 5897 5895 5894 5893 5892 5891 5890
5927 5925 5924 5922 5920 5918 5916 5914 5913 5911 5909 5908 5907 5906 5905 5904 5903 5902 5901 5901 5900 5900 5899 5899 5899 5899 5899 5899 5898 5898 5898 5897 5897 5896 5895 5895 5894 5893 5892 5891 5890 5889 5888
5928 5926 5924 5923 5922 5920 5918 5916 5914 5912 5911 5909 5908 5907 5905 5904 5903 5902 5901 5900 5900 5899 5898 5898 5898 5898 5897 5897 5897 5896 5896 5895 5894 5894 5893 5892 5891 5890 5889 5888 5887 5885 5884
5928 5927 5925 5924 5922 5921 5919 5917 5915 5914 5912 5910 5909 5907 5905 5904 5902 5901 5900 5899 5899 5898 5898 5897 5897 5896 5896 5895 5894 5894 5893 5893 5892 5891 5890 5889 5888 5887 5886 5885 5884 5882 5881
5929 5927 5926 5925 5923 5922 5920 5918 5916 5914 5913 5911 5909 5907 5905 5904 5902 5901 5899 5898 5898 5897 5896 5896 5895 5895 5894 5893 5892 5892 5891 5890 5889 5888 5887 5886 5885 5884 5883 5881 5880 5878 5877
5929 5928 5926 5925 5924 5922 5920 5919 5917 5915 5913 5911 5909 5908 5906 5904 5902 5900 5899 5898 5896 5896 5895 5894 5893 5893 5892 5891 5890 5889 5889 5887 5886 5885 5884 5883 5882 5880 5879 5878 5876 5875 5873
5929 5928 5926 5925 5924 5922 5921 5919 5917 5915 5913 5911 5910 5908 5906 5904 5902 5900 5898 5897 5895 5894 5893 5892 5892 5891 5890 5889 5888 5887 5886 5885 5883 5882 5881 5880 5878 5876 5875 5874 5872 5871 5869
5928 5927 5926 5925 5923 5922 5921 5919 5917 5916 5914 5912 5910 5908 5906 5903 5901 5899 5898 5896 5894 5893 5892 5891 5890 5889 5887 5886 5885 5884 5883 5882 5880 5879 5878 5876 5875 5873 5871 5869 5868 5867 5866
5926 5925 5925 5924 5923 5922 5920 5919 5917 5915 5913 5911 5909 5907 5905 5903 5901 5899 5897 5895 5893 5892 5891 5889 5888 5886 5885 5883 5882 5881 5880 5878 5877 5876 5874 5873 5871 5869 5868 5866 5864 5863 5862
5924 5924 5923 5922 5921 5920 5919 5918 5916 5915 5913 5911 5909 5907 5904 5902 5900 5898 5896 5894 5892 5890 5889 5887 5885 5884 5882 5880 5879 5878 5876 5875 5874 5873 5871 5869 5868 5866 5864 5862 5861 5859 5858
5922 5921 5921 5920 5920 5919 5918 5916 5915 5913 5912 5910 5908 5906 5903 5901 5899 5897 5895 5893 5890 5888 5887 5885 5883 5881 5879 5878 5876 5875 5873 5872 5870 5869 5868 5866 5865 5863 5861 5859 5857 5856 5854
5919 5918 5918 5918 5917 5916 5915 5914 5913 5912 5910 5908 5906 5904 5902 5900 5898 5896 5893 5891 5888 5886 5884 5882 5880 5878 5876 5875 5873 5872 5870 5869 5867 5866 5864 5863 5861 5859 5857 5856 5854 5852 5850
5915 5915 5915 5914 5914 5913 5913 5912 5911 5909 5908 5906 5905 5903 5901 5898 5896 5894 5891 5888 5886 5884 5881 5879 5878 5876 5874 5872 5870 5869 5867 5866 5864 5863 5861 5859 5858 5856 5854 5852 5850 5848 5846
5911 5911 5911 5911 5910 5910 5909 5908 5908 5907 5905 5904 5902 5901 5899 5896 5894 5891 5889 5886 5884 5881 5879 5877 5875 5872 5871 5869 5867 5866 5864 5862 5861 5859 5858 5856 5854 5852 5850 5848 5846 5844 5842
5906 5906 5907 5906 5906 5906 5905 5904 5904 5903 5902 5901 5900 5898 5896 5893 5891 5889 5886 5884 5881 5878 5876 5873 5871 5869 5867 5866 5864 5862 5861 5859 5857 5856 5854 5852 5850 5848 5846 5844 5842 5841 5839
5901 5901 5902 5902 5902 5901 5901 5900 5900 5899 5899 5898 5896 5895 5892 5890 5888 5885 5883 5880 5878 5875 5872 5870 5867 5865 5863 5862 5860 5859 5857 5855 5853 5852 5850 5848 5846 5844 5842 5840 5838 5836 5834
5895 5896 5896 5896 5896 5896 5896 5896 5896 5895 5894 5893 5892 5891 5889 5886 5884 5882 5879 5876 5874 5871 5869 5866 5864 5862 5860 5858 5857 5855 5854 5852 5850 5848 5846 5844 5842 5840 5838 5836 5834 5832 5830
5888 5889 5890 5890 5890 5891 5891 5891 5891 5890 5889 5888 5887 5886 5884 5882 5880 5878 5875 5872 5869 5867 5865 5863 5861 5858 5857 5855 5854 5852 5850 5848 5846 5844 5842 5840 5838 5836 5834 5832 5829 5827 5825
5881 5882 5883 5884 5885 5885 5885 5885 5885 5884 5884 5883 5882 5881 5879 5877 5875 5873 5870 5867 5864 5862 5861 5859 5857 5855 5853 5851 5849 5848 5846 5844 5842 5840 5837 5835 5833 5831 5829 5827 5824 5822 5820
5874 5874 5875 5877 5878 5878 5879 5879 5879 5878 5877 5877 5876 5875 5873 5872 5870 5867 5865 5862 5860 5858 5856 5854 5852 5850 5849 5847 5845 5843 5841 5839 5837 5835 5833 5830 5828 5826 5823 5821 5819 5817 5814
5866 5867 5868 5869 5870 5870 5871 5872 5872 5871 5870 5870 5869 5868 5867 5865 5863 5861 5859 5857 5854 5853 5851 5849 5847 5845 5843 5841 5840 5838 5836 5834 5832 5830 5827 5825 5822 5820 5818 5815 5813 5811 5809
5857 5858 5859 5860 5861 5862 5863 5864 5864 5863 5863 5863 5863 5862 5860 5858 5857 5855 5853 5850 5848 5847 5845 5843 5841 5840 5838 5836 5834 5833 5831 5829 5827 5825 5822 5819 5817 5815 5812 5810 5807 5805 5803
5847 5849 5850 5851 5852 5854 5854 5855 5855 5856 5856 5856 5855 5854 5852 5850 5849 5848 5846 5844 5842 5840 5838 5837 5835 5834 5832 5830 5828 5827 5825 5823 5821 5819 5816 5814 5811 5809 5806 5804 5801 5799 5796
5838 5839 5841 5842 5843 5844 5845 5846 5846 5847 5847 5847 5846 5845 5844 5843 5842 5840 5838 5837 5835 5833 5831 5830 5828 5827 5826 5824 5822 5820 5819 5817 5815 5812 5810 5808 5805 5803 5800 5798 5795 5792 5790
5828 5830 5831 5832 5834 5835 5836 5836 5837 5838 5838 5837 5837 5836 5835 5835 5834 5832 5830 5828 5827 5825 5823 5822 5821 5820 5819 5817 5816 5814 5812 5810 5808 5806 5803 5801 5798 5796 5793 5791 5788 5785 5783